QPF
0.00 0.00 0.00 0.00 0.00 0.00 0.00 0.02 0.02 0.00 0.03 0.06 0.12 0.11 0.08 0.07 0.05 0.04 0.05 0.04 0.14 0.09 0.03 0.00 0.01 0.02 0.06 0.17 0.28 0.29 0.16 0.18 0.35 0.18 0.06 0.08 0.09 0.14 0.06 0.01 0.00 0.01 0.03 0.03 0.04 0.03 0.02 0.00 0.00 0.00 0.00 0.00 0.00 0.00
0.00 0.00 0.00 0.00 0.00 0.00 0.00 0.01 0.03 0.02 0.03 0.06 0.06 0.08 0.06 0.06 0.06 0.06 0.04 0.03 0.10 0.23 0.08 0.00 0.00 0.00 0.04 0.10 0.18 0.15 0.31 0.29 0.23 0.24 0.15 0.06 0.04 0.01 0.04 0.03 0.00 0.00 0.00 0.00 0.00 0.00 0.00 0.00 0.00 0.00 0.00 0.00 0.00 0.00
0.00 0.00 0.00 0.00 0.00 0.00 0.00 0.00 0.01 0.04 0.03 0.05 0.04 0.04 0.02 0.03 0.04 0.04 0.04 0.05 0.08 0.14 0.08 0.03 0.05 0.03 0.04 0.02 0.09 0.18 0.13 0.26 0.26 0.11 0.16 0.07 0.05 0.01 0.00 0.01 0.01 0.00 0.00 0.00 0.00 0.00 0.00 0.00 0.00 0.00 0.00 0.00 0.00 0.00
0.00 0.00 0.00 0.00 0.00 0.00 0.00 0.00 0.00 0.04 0.07 0.01 0.01 0.02 0.01 0.02 0.05 0.06 0.05 0.07 0.03 0.08 0.10 0.05 0.06 0.15 0.04 0.04 0.01 0.07 0.05 0.02 0.09 0.14 0.16 0.16 0.10 0.03 0.01 0.01 0.02 0.03 0.01 0.00 0.00 0.00 0.00 0.00 0.00 0.00 0.00 0.00 0.00 0.00
0.00 0.00 0.00 0.00 0.00 0.00 0.00 0.00 0.00 0.01 0.06 0.05 0.05 0.05 0.03 0.05 0.12 0.11 0.07 0.08 0.10 0.06 0.10 0.04 0.08 0.26 0.20 0.10 0.11 0.06 0.02 0.01 0.00 0.04 0.13 0.18 0.12 0.04 0.03 0.02 0.01 0.02 0.03 0.00 0.00 0.00 0.00 0.00 0.00 0.00 0.00 0.00 0.00 0.00
0.00 0.00 0.00 0.00 0.00 0.00 0.00 0.00 0.00 0.00 0.06 0.24 0.23 0.10 0.11 0.16 0.18 0.09 0.17 0.15 0.11 0.05 0.06 0.10 0.08 0.17 0.40 0.34 0.17 0.18 0.11 0.03 0.01 0.03 0.06 0.05 0.05 0.03 0.03 0.03 0.00 0.00 0.00 0.00 0.00 0.00 0.00 0.00 0.00 0.00 0.00 0.00 0.00 0.00
0.00 0.00 0.00 0.00 0.00 0.00 0.00 0.00 0.00 0.00 0.00 0.07 0.19 0.19 0.17 0.18 0.17 0.12 0.09 0.05 0.07 0.05 0.07 0.09 0.06 0.06 0.20 0.34 0.26 0.18 0.14 0.10 0.06 0.02 0.01 0.01 0.00 0.00 0.00 0.00 0.00 0.00 0.00 0.00 0.00 0.00 0.00 0.00 0.00 0.00 0.00 0.00 0.00 0.00
0.00 0.00 0.00 0.00 0.00 0.00 0.00 0.00 0.00 0.00 0.00 0.01 0.04 0.06 0.09 0.14 0.21 0.15 0.03 0.04 0.06 0.12 0.10 0.07 0.05 0.06 0.09 0.13 0.18 0.12 0.10 0.06 0.04 0.03 0.01 0.00 0.00 0.00 0.00 0.00 0.00 0.00 0.00 0.00 0.00 0.00 0.00 0.00 0.00 0.00 0.00 0.00 0.00 0.00
0.00 0.00 0.00 0.00 0.00 0.00 0.00 0.00 0.00 0.00 0.00 0.00 0.00 0.00 0.02 0.07 0.12 0.14 0.06 0.04 0.06 0.11 0.11 0.06 0.05 0.05 0.03 0.03 0.03 0.03 0.02 0.02 0.02 0.01 0.00 0.00 0.00 0.00 0.00 0.00 0.00 0.00 0.00 0.00 0.00 0.00 0.00 0.00 0.00 0.00 0.00 0.00 0.00 0.00
0.00 0.00 0.00 0.00 0.00 0.00 0.00 0.00 0.00 0.00 0.00 0.00 0.00 0.00 0.01 0.00 0.00 0.00 0.00 0.01 0.03 0.03 0.02 0.05 0.03 0.03 0.03 0.02 0.00 0.00 0.00 0.00 0.00 0.00 0.00 0.00 0.00 0.00 0.00 0.00 0.00 0.00 0.00 0.00 0.00 0.00 0.00 0.00 0.00 0.00 0.00 0.00 0.00 0.00
0.01 0.00 0.00 0.00 0.00 0.00 0.00 0.00 0.00 0.00 0.00 0.00 0.00 0.00 0.00 0.00 0.00 0.00 0.00 0.00 0.00 0.02 0.02 0.04 0.01 0.01 0.01 0.00 0.00 0.00 0.00 0.00 0.00 0.00 0.00 0.00 0.00 0.00 0.00 0.00 0.00 0.00 0.00 0.00 0.00 0.00 0.00 0.00 0.00 0.00 0.00 0.00 0.00 0.00
0.00 0.00 0.00 0.00 0.00 0.00 0.00 0.00 0.00 0.00 0.00 0.00 0.00 0.00 0.00 0.00 0.00 0.00 0.00 0.00 0.00 0.01 0.02 0.03 0.02 0.01 0.01 0.00 0.00 0.00 0.00 0.00 0.01 0.00 0.00 0.00 0.00 0.00 0.00 0.00 0.00 0.00 0.00 0.00 0.00 0.00 0.00 0.00 0.00 0.00 0.00 0.00 0.00 0.00
0.00 0.00 0.00 0.00 0.00 0.00 0.00 0.00 0.00 0.00 0.00 0.00 0.00 0.00 0.00 0.00 0.00 0.00 0.00 0.00 0.00 0.00 0.01 0.01 0.01 0.00 0.00 0.01 0.00 0.00 0.00 0.00 0.00 0.00 0.00 0.00 0.00 0.00 0.00 0.00 0.00 0.00 0.00 0.00 0.00 0.00 0.00 0.00 0.00 0.00 0.00 0.00 0.00 0.00
0.00 0.00 0.00 0.00 0.00 0.00 0.00 0.00 0.00 0.00 0.00 0.00 0.00 0.00 0.00 0.00 0.01 0.00 0.01 0.01 0.00 0.00 0.01 0.01 0.00 0.01 0.00 0.00 0.00 0.00 0.00 0.00 0.00 0.00 0.00 0.00 0.00 0.00 0.00 0.00 0.00 0.00 0.00 0.00 0.00 0.00 0.00 0.00 0.00 0.00 0.00 0.00 0.00 0.00
0.00 0.00 0.00 0.00 0.00 0.00 0.00 0.00 0.00 0.00 0.00 0.00 0.00 0.00 0.00 0.00 0.00 0.00 0.00 0.00 0.01 0.03 0.01 0.01 0.00 0.01 0.00 0.00 0.00 0.00 0.00 0.00 0.00 0.00 0.01 0.00 0.00 0.00 0.00 0.00 0.00 0.00 0.00 0.00 0.00 0.00 0.00 0.00 0.00 0.00 0.00 0.00 0.00 0.00
0.00 0.00 0.00 0.00 0.00 0.00 0.00 0.00 0.00 0.00 0.00 0.00 0.00 0.01 0.01 0.02 0.01 0.01 0.00 0.01 0.03 0.03 0.03 0.02 0.01 0.01 0.00 0.00 0.00 0.00 0.00 0.00 0.01 0.02 0.01 0.00 0.00 0.00 0.00 0.00 0.00 0.00 0.00 0.00 0.00 0.00 0.00 0.00 0.00 0.00 0.00 0.00 0.00 0.00
0.00 0.00 0.00 0.00 0.00 0.00 0.00 0.00 0.00 0.00 0.00 0.00 0.00 0.00 0.02 0.03 0.01 0.01 0.03 0.04 0.03 0.02 0.03 0.01 0.00 0.00 0.01 0.01 0.00 0.00 0.01 0.02 0.01 0.00 0.00 0.00 0.00 0.00 0.00 0.00 0.00 0.00 0.00 0.00 0.00 0.00 0.00 0.00 0.00 0.00 0.00 0.00 0.00 0.00
0.00 0.00 0.00 0.00 0.00 0.00 0.00 0.00 0.00 0.00 0.00 0.00 0.01 0.00 0.00 0.00 0.00 0.00 0.02 0.05 0.06 0.06 0.04 0.03 0.02 0.01 0.01 0.01 0.03 0.04 0.01 0.00 0.00 0.00 0.00 0.00 0.00 0.00 0.00 0.00 0.00 0.00 0.00 0.00 0.00 0.00 0.00 0.00 0.00 0.00 0.00 0.00 0.00 0.00
0.00 0.00 0.00 0.00 0.00 0.00 0.00 0.00 0.00 0.00 0.00 0.00 0.00 0.00 0.00 0.00 0.00 0.00 0.00 0.00 0.00 0.03 0.04 0.02 0.01 0.01 0.03 0.05 0.04 0.00 0.00 0.00 0.01 0.00 0.00 0.00 0.00 0.00 0.00 0.00 0.00 0.00 0.00 0.00 0.00 0.00 0.00 0.00 0.00 0.00 0.00 0.00 0.00 0.00
0.00 0.00 0.00 0.00 0.00 0.00 0.00 0.00 0.00 0.00 0.01 0.01 0.00 0.01 0.00 0.00 0.00 0.00 0.00 0.00 0.00 0.01 0.02 0.01 0.00 0.02 0.04 0.06 0.05 0.03 0.02 0.01 0.00 0.01 0.00 0.00 0.00 0.00 0.00 0.00 0.00 0.00 0.00 0.00 0.00 0.00 0.00 0.00 0.00 0.00 0.00 0.00 0.00 0.00
0.00 0.00 0.00 0.00 0.00 0.00 0.00 0.00 0.00 0.00 0.00 0.00 0.00 0.01 0.01 0.00 0.00 0.00 0.00 0.00 0.01 0.00 0.01 0.01 0.03 0.04 0.02 0.03 0.02 0.02 0.01 0.00 0.00 0.00 0.00 0.00 0.00 0.00 0.00 0.00 0.00 0.00 0.00 0.00 0.00 0.00 0.00 0.00 0.00 0.00 0.00 0.00 0.00 0.00
0.00 0.00 0.00 0.00 0.00 0.00 0.00 0.00 0.00 0.00 0.00 0.00 0.00 0.01 0.03 0.02 0.01 0.01 0.03 0.03 0.01 0.00 0.01 0.03 0.03 0.04 0.03 0.04 0.02 0.01 0.00 0.00 0.01 0.00 0.00 0.00 0.00 0.00 0.00 0.00 0.00 0.00 0.00 0.00 0.00 0.00 0.00 0.00 0.00 0.00 0.00 0.00 0.00 0.00
0.00 0.00 0.00 0.00 0.00 0.00 0.00 0.00 0.00 0.00 0.00 0.00 0.00 0.00 0.01 0.03 0.05 0.03 0.05 0.01 0.00 0.01 0.02 0.01 0.00 0.02 0.06 0.04 0.02 0.00 0.00 0.00 0.01 0.02 0.01 0.00 0.00 0.00 0.00 0.00 0.00 0.00 0.00 0.00 0.00 0.00 0.01 0.00 0.00 0.00 0.00 0.00 0.00 0.00
0.00 0.00 0.00 0.01 0.00 0.01 0.00 0.00 0.00 0.00 0.00 0.00 0.00 0.01 0.01 0.05 0.01 0.01 0.01 0.03 0.05 0.02 0.01 0.00 0.00 0.01 0.04 0.05 0.03 0.01 0.00 0.00 0.02 0.02 0.02 0.01 0.00 0.01 0.00 0.00 0.01 0.01 0.00 0.00 0.00 0.01 0.01 0.00 0.00 0.00 0.00 0.00 0.00 0.00
0.00 0.00 0.01 0.01 0.01 0.01 0.01 0.00 0.01 0.01 0.01 0.01 0.01 0.01 0.04 0.02 0.01 0.00 0.00 0.02 0.04 0.01 0.00 0.00 0.00 0.02 0.04 0.06 0.07 0.05 0.00 0.02 0.03 0.01 0.01 0.01 0.01 0.01 0.01 0.01 0.00 0.00 0.00 0.00 0.00 0.00 0.00 0.00 0.00 0.00 0.00 0.00 0.00 0.00
0.00 0.00 0.00 0.01 0.01 0.00 0.01 0.01 0.01 0.00 0.00 0.01 0.00 0.01 0.03 0.04 0.03 0.01 0.02 0.05 0.01 0.00 0.00 0.00 0.00 0.00 0.02 0.06 0.06 0.03 0.01 0.03 0.05 0.02 0.01 0.01 0.01 0.00 0.00 0.00 0.00 0.00 0.00 0.00 0.00 0.00 0.00 0.00 0.00 0.00 0.00 0.00 0.00 0.00
0.00 0.00 0.00 0.00 0.00 0.00 0.00 0.00 0.01 0.01 0.01 0.01 0.01 0.02 0.02 0.01 0.01 0.02 0.01 0.01 0.01 0.00 0.00 0.00 0.00 0.00 0.00 0.00 0.00 0.00 0.01 0.01 0.03 0.03 0.00 0.00 0.00 0.00 0.00 0.00 0.00 0.00 0.00 0.00 0.00 0.00 0.00 0.00 0.00 0.00 0.00 0.00 0.00 0.00
0.00 0.00 0.00 0.00 0.00 0.00 0.00 0.00 0.00 0.00 0.01 0.00 0.00 0.01 0.01 0.01 0.02 0.01 0.01 0.00 0.00 0.00 0.00 0.00 0.00 0.00 0.00 0.00 0.00 0.00 0.00 0.00 0.00 0.00 0.00 0.00 0.00 0.00 0.00 0.00 0.00 0.00 0.00 0.00 0.00 0.00 0.00 0.00 0.00 0.00 0.00 0.00 0.01 0.00
0.00 0.00 0.00 0.00 0.00 0.00 0.00 0.00 0.00 0.00 0.00 0.00 0.00 0.00 0.01 0.01 0.00 0.00 0.00 0.00 0.00 0.00 0.00 0.00 0.00 0.00 0.00 0.00 0.01 0.01 0.01 0.01 0.01 0.01 0.00 0.00 0.00 0.00 0.00 0.00 0.00 0.00 0.00 0.00 0.00 0.00 0.00 0.00 0.00 0.00 0.00 0.00 0.00 0.00
0.00 0.00 0.00 0.00 0.00 0.00 0.00 0.00 0.00 0.01 0.00 0.00 0.00 0.00 0.00 0.00 0.00 0.00 0.00 0.00 0.00 0.00 0.00 0.00 0.00 0.00 0.00 0.01 0.01 0.01 0.01 0.01 0.02 0.03 0.02 0.00 0.00 0.00 0.00 0.00 0.00 0.00 0.00 0.00 0.00 0.00 0.00 0.00 0.00 0.00 0.00 0.00 0.00 0.00
0.00 0.00 0.00 0.00 0.00 0.00 0.00 0.00 0.00 0.00 0.00 0.00 0.00 0.00 0.00 0.00 0.00 0.00 0.00 0.00 0.00 0.00 0.00 0.00 0.00 0.00 0.01 0.00 0.00 0.01 0.01 0.00 0.01 0.01 0.01 0.01 0.00 0.00 0.00 0.00 0.00 0.00 0.00 0.00 0.00 0.00 0.00 0.00 0.00 0.00 0.00 0.00 0.01 0.00
0.00 0.00 0.00 0.00 0.00 0.00 0.00 0.00 0.00 0.00 0.00 0.00 0.00 0.00 0.00 0.00 0.00 0.00 0.00 0.00 0.00 0.00 0.00 0.00 0.00 0.01 0.05 0.05 0.03 0.02 0.02 0.01 0.01 0.01 0.02 0.02 0.02 0.01 0.00 0.01 0.01 0.00 0.00 0.00 0.00 0.00 0.00 0.00 0.00 0.00 0.01 0.00 0.00 0.00
0.00 0.00 0.00 0.00 0.00 0.00 0.00 0.00 0.00 0.00 0.00 0.00 0.00 0.00 0.00 0.00 0.00 0.00 0.00 0.00 0.00 0.00 0.00 0.00 0.01 0.01 0.01 0.04 0.07 0.07 0.04 0.02 0.01 0.01 0.02 0.02 0.01 0.01 0.01 0.01 0.01 0.00 0.00 0.00 0.00 0.01 0.01 0.00 0.01 0.00 0.00 0.00 0.00 0.00
MSLP
1000.36 999.70 998.85 997.96 997.02 996.06 994.92 993.81 992.72 991.54 991.64 992.30 993.10 993.98 994.73 995.53 996.37 997.37 998.03 998.79 999.58 999.70 999.33 999.51 999.71 1000.04 1000.03 999.82 999.19 998.25 998.17 998.34 998.72 999.26 999.79 1000.56 1001.00 1001.00 1001.01 1000.55 1000.43 1001.04 1002.48 1002.72 1003.04 1002.38 1001.24 999.20 999.16 999.07 999.34 999.79 1000.11 1000.48
1000.64 999.98 999.33 998.45 997.59 996.59 995.50 994.48 993.44 992.78 992.46 992.84 993.48 994.16 994.95 995.80 996.56 997.69 998.10 998.61 999.31 1000.45 1000.92 1000.88 1000.37 1000.39 1000.38 1000.75 1000.93 998.69 997.47 998.32 998.34 998.12 998.68 999.11 999.74 999.33 999.73 999.93 999.54 999.81 999.43 1000.08 1000.91 1000.15 999.41 999.02 998.63 999.11 999.59 1000.15 1000.71 1001.07
1000.93 1000.30 999.63 998.94 998.17 997.34 996.24 995.18 994.36 993.63 992.76 993.10 993.70 994.41 995.24 996.03 996.70 997.48 998.15 998.80 999.65 1000.34 1000.61 1000.64 1000.01 999.95 1000.65 1000.79 1000.84 999.89 997.92 997.87 998.12 998.18 998.17 998.66 998.58 998.60 998.39 998.24 998.43 998.84 999.06 999.20 999.85 999.26 998.99 999.06 999.47 999.54 1000.17 1000.56 1001.09 1001.66
1001.31 1000.71 999.98 999.30 998.57 997.81 996.91 995.90 995.05 994.04 992.61 993.21 993.84 994.49 995.20 995.77 996.43 997.51 998.42 998.54 999.06 1000.04 1000.14 1000.28 1000.18 1000.36 1000.39 999.86 998.76 997.94 996.00 996.64 997.59 998.19 998.69 998.76 998.55 998.23 997.94 997.47 997.75 998.16 998.36 998.91 999.20 998.90 998.48 999.13 999.43 1000.00 1000.52 1000.74 1001.36 1002.15
1001.58 1001.04 1000.47 999.68 998.96 998.16 997.41 996.58 995.71 994.93 993.86 993.55 994.06 994.58 995.16 995.87 996.70 998.17 998.57 999.03 999.04 999.39 999.35 999.52 999.91 999.99 998.82 997.69 997.20 996.06 995.78 996.42 997.44 998.66 999.02 998.97 998.69 998.07 998.23 997.99 997.54 997.37 998.06 998.25 998.52 998.71 998.62 999.28 999.99 1000.50 1001.43 1001.88 1002.40 1002.87
1001.90 1001.38 1000.78 1000.21 999.36 998.61 997.76 997.12 996.52 996.12 995.98 995.57 995.33 995.02 995.53 996.22 997.24 998.11 999.65 999.57 999.23 998.76 999.38 999.48 999.84 1000.13 999.84 999.22 996.73 996.22 996.45 996.84 997.53 998.68 999.41 999.18 999.32 999.30 999.18 998.78 997.73 997.19 996.94 997.76 998.15 998.79 999.07 999.86 1000.22 1001.23 1002.12 1002.40 1002.93 1003.56
1002.19 1001.69 1001.13 1000.54 999.87 999.05 998.40 997.52 997.12 996.89 996.90 996.90 996.73 996.66 996.85 996.96 997.72 998.38 998.61 998.43 999.21 998.94 999.27 999.64 999.89 999.88 999.68 999.25 998.62 998.33 998.23 998.71 998.96 999.10 999.16 998.90 999.16 999.02 998.38 997.84 996.98 997.08 997.65 998.28 998.88 999.21 999.98 1000.34 1000.88 1001.66 1002.22 1003.08 1003.70 1004.17
1002.34 1001.94 1001.49 1000.94 1000.33 999.62 998.80 998.22 997.43 997.32 997.37 997.43 997.51 997.70 997.77 997.82 998.55 998.79 998.99 998.91 998.84 998.86 999.03 999.06 999.45 999.61 999.46 998.94 998.92 999.03 999.93 999.99 999.43 999.66 999.29 998.75 999.06 998.90 997.97 997.19 997.37 997.94 998.66 999.06 999.60 1000.07 1000.68 1001.07 1001.84 1002.79 1003.20 1003.35 1004.04 1004.70
1002.48 1002.05 1001.69 1001.25 1000.66 1000.03 999.33 998.44 997.91 997.47 997.67 997.73 997.91 997.92 997.79 998.07 998.67 999.24 999.42 999.19 999.00 998.90 998.28 998.09 997.93 999.12 999.48 999.36 999.39 999.48 999.22 999.39 999.78 999.68 999.11 998.42 998.82 998.11 997.26 997.02 997.95 998.79 999.42 1000.09 1000.70 1001.06 1001.20 1001.76 1002.70 1003.18 1003.52 1003.81 1004.34 1005.04
1002.71 1002.27 1001.91 1001.46 1000.88 1000.17 999.49 998.69 997.63 997.13 997.26 997.83 998.15 997.83 997.27 997.74 998.65 999.10 999.37 998.67 998.40 998.35 998.02 997.81 998.06 998.55 998.58 998.51 998.79 998.99 998.69 999.06 999.57 999.64 999.32 998.92 998.70 998.05 997.34 997.69 998.44 999.58 1000.24 1000.79 1001.40 1001.81 1002.28 1002.91 1003.35 1003.54 1003.74 1004.20 1004.67 1005.31
1003.26 1002.78 1002.24 1001.66 1001.12 1000.46 999.68 998.98 997.95 996.66 996.24 997.02 996.95 996.79 996.60 997.54 998.01 997.61 997.32 997.28 997.36 997.82 997.86 998.37 998.20 998.31 998.83 998.35 998.12 998.18 998.81 998.70 998.76 999.49 999.21 998.98 998.74 998.43 998.15 998.75 999.79 1000.71 1001.33 1001.80 1002.32 1002.93 1003.28 1003.53 1003.73 1004.18 1004.53 1004.87 1005.14 1005.69
1003.78 1003.16 1002.60 1002.04 1001.36 1000.67 1000.03 999.31 998.73 997.45 997.60 997.82 997.84 996.79 995.99 995.92 996.34 996.64 996.64 996.42 996.26 997.18 997.90 998.21 998.69 998.84 998.95 998.78 998.64 998.78 998.58 998.74 998.93 999.12 998.79 998.26 998.04 998.59 999.36 1000.42 1001.45 1002.30 1002.80 1003.29 1003.79 1004.32 1004.90 1004.92 1005.09 1005.42 1005.52 1005.60 1005.90 1006.76
1003.92 1003.49 1002.88 1002.23 1001.61 1000.85 1000.09 999.45 998.79 998.47 997.58 997.11 997.31 996.75 996.64 996.89 997.06 996.99 997.13 996.65 996.65 996.76 997.32 997.85 998.37 998.81 998.95 998.57 998.80 998.57 998.78 999.00 998.90 998.99 998.32 997.69 998.26 999.13 1000.28 1001.48 1002.54 1003.27 1003.82 1004.35 1004.77 1005.23 1005.60 1005.94 1006.28 1006.65 1006.74 1007.27 1007.51 1008.12
1003.76 1003.33 1002.92 1002.34 1001.79 1000.97 1000.23 999.46 998.71 998.01 997.30 996.92 997.02 997.68 997.72 998.00 998.69 998.94 998.63 998.02 997.73 997.26 997.34 997.68 997.98 998.22 998.52 998.96 999.10 999.10 999.47 999.14 998.81 998.51 997.93 998.44 999.25 1000.15 1001.19 1002.25 1003.26 1003.91 1004.55 1005.08 1005.61 1006.03 1006.55 1007.09 1007.58 1008.02 1008.22 1008.42 1008.75 1009.11
1003.51 1003.15 1002.76 1002.24 1001.76 1001.00 1000.23 999.48 998.75 997.89 997.36 997.58 997.87 998.32 998.96 999.97 1000.06 999.92 999.51 998.76 998.32 997.88 997.99 998.09 998.12 998.14 998.62 999.15 998.95 999.56 999.75 999.21 998.60 997.86 998.15 998.67 999.97 1001.05 1002.10 1003.03 1003.90 1004.90 1005.42 1006.00 1006.57 1007.03 1007.46 1007.90 1008.32 1008.72 1009.02 1009.13 1009.27 1009.56
1003.42 1002.76 1002.66 1002.35 1001.74 1000.85 1000.02 999.16 998.00 997.90 998.10 998.57 999.02 999.33 999.61 999.74 1000.04 1000.00 999.53 998.87 998.58 998.51 998.51 998.30 998.17 998.50 998.64 998.78 998.93 999.03 998.95 998.50 998.27 998.54 998.94 999.84 1001.07 1001.97 1003.09 1004.12 1004.93 1005.76 1006.33 1006.81 1007.23 1007.62 1008.03 1008.37 1008.66 1008.94 1009.17 1009.32 1009.49 1009.79
1003.42 1002.94 1003.02 1002.34 1001.62 1000.47 999.53 999.02 998.16 998.12 998.36 998.69 1000.02 1000.38 1000.18 1000.05 1000.10 1000.03 999.44 998.92 998.70 998.61 998.52 998.21 998.12 998.06 998.15 998.21 998.13 998.08 998.38 998.84 999.46 999.88 1000.40 1001.22 1002.00 1002.92 1004.12 1005.04 1005.66 1006.19 1006.70 1007.04 1007.40 1007.77 1008.17 1008.51 1008.78 1009.05 1009.27 1009.58 1009.77 1010.10
1003.28 1003.09 1002.82 1002.52 1001.74 1000.01 999.09 998.97 998.68 998.36 998.71 999.21 999.68 1000.28 1000.04 1000.22 1000.39 1000.03 999.63 999.30 999.00 998.79 998.63 998.40 998.21 998.05 998.03 997.96 997.80 998.72 999.55 999.99 1000.23 1000.79 1001.49 1002.07 1002.90 1003.81 1004.67 1005.36 1005.97 1006.17 1006.48 1006.92 1007.27 1007.86 1008.19 1008.31 1008.38 1008.64 1009.24 1009.65 1010.00 1010.38
1004.14 1003.67 1003.26 1002.72 1002.33 1001.53 999.98 999.56 999.40 998.92 999.28 999.44 999.72 999.80 1000.04 1000.31 1000.00 999.96 999.76 999.68 999.39 999.30 999.32 998.77 998.31 997.88 997.82 998.02 998.61 999.22 999.89 1000.31 1000.78 1001.54 1002.12 1002.69 1003.37 1004.22 1004.87 1005.45 1005.76 1006.02 1006.46 1006.80 1007.15 1007.48 1007.72 1007.90 1007.92 1008.36 1008.91 1009.31 1009.74 1010.17
1003.64 1003.47 1003.11 1002.44 1002.26 1000.83 1000.25 999.91 999.85 999.30 999.09 999.42 999.60 999.62 999.62 999.94 1000.08 1000.10 1000.10 999.96 999.56 999.28 999.03 998.52 998.04 998.05 998.23 998.37 998.66 999.12 999.75 1000.48 1001.08 1001.77 1002.57 1003.21 1003.70 1004.19 1004.68 1005.15 1005.51 1005.86 1006.27 1006.62 1006.83 1007.18 1007.44 1007.62 1007.74 1008.23 1008.63 1008.94 1009.42 1010.01
1003.19 1003.28 1002.87 1002.31 1001.12 1001.00 1000.44 999.97 999.59 999.63 999.52 999.47 999.32 999.48 999.44 999.83 1000.03 1000.07 1000.00 999.64 999.80 999.38 998.45 998.06 997.94 998.30 998.52 998.64 998.80 999.14 999.81 1000.42 1000.97 1001.57 1002.25 1003.04 1003.62 1004.00 1004.48 1004.89 1005.29 1005.62 1005.91 1006.36 1006.74 1006.85 1007.08 1007.42 1007.73 1008.20 1008.57 1009.10 1009.62 1009.88
1003.62 1003.59 1003.12 1002.70 1001.74 1001.47 1000.84 999.97 999.98 1000.42 1000.15 999.40 999.53 999.44 999.11 999.45 999.53 999.48 999.45 999.46 999.11 998.57 998.38 998.38 998.39 998.43 998.71 998.90 999.08 999.44 1000.03 1000.34 1000.96 1001.41 1001.97 1002.69 1003.31 1003.82 1004.20 1004.56 1004.98 1005.37 1005.67 1005.93 1006.10 1006.52 1006.84 1007.10 1007.50 1008.12 1008.83 1009.41 1009.77 1009.85
1003.56 1003.60 1003.15 1002.91 1002.44 1001.70 1001.05 1000.30 1000.10 999.84 999.86 999.58 999.17 998.95 998.69 998.75 998.65 998.73 998.74 998.49 998.37 998.24 998.34 998.37 998.26 998.34 998.64 998.92 999.25 999.76 1000.11 1000.44 1000.87 1001.33 1001.86 1002.34 1002.97 1003.42 1003.76 1004.14 1004.49 1004.86 1005.19 1005.51 1005.72 1006.28 1006.66 1007.02 1007.75 1008.44 1008.92 1009.30 1009.60 1009.88
1003.84 1003.48 1003.05 1002.49 1002.21 1001.60 1001.25 1000.64 1000.06 999.77 999.49 999.55 999.08 998.59 998.19 998.42 999.11 998.98 998.42 997.92 997.93 998.22 998.56 998.74 998.74 998.74 998.91 999.16 999.44 999.90 1000.26 1000.49 1000.73 1001.32 1001.58 1001.96 1002.46 1002.89 1003.30 1003.70 1004.08 1004.47 1004.79 1005.21 1005.81 1006.35 1006.82 1007.37 1007.88 1008.41 1008.75 1008.99 1009.43 1009.68
1003.90 1003.39 1003.24 1002.19 1001.96 1001.72 1001.22 1000.49 1000.00 999.53 999.38 999.21 998.74 998.43 998.09 998.69 999.02 999.00 998.61 998.11 998.65 999.15 999.54 999.75 999.57 999.25 999.23 999.36 999.47 999.69 1000.07 1000.42 1000.63 1000.92 1001.30 1001.73 1002.14 1002.60 1003.09 1003.54 1003.97 1004.29 1004.82 1005.54 1006.26 1006.75 1007.25 1007.59 1007.89 1008.17 1008.48 1008.84 1009.11 1009.37
1003.20 1002.66 1002.56 1001.67 1001.51 1001.35 1000.74 1000.47 1000.25 999.97 999.52 999.36 999.13 998.63 998.72 998.84 999.10 998.92 998.91 999.86 1000.19 1000.77 1000.98 1001.04 1000.84 1000.36 999.91 999.73 999.74 999.92 1000.04 1000.21 1000.50 1000.79 1000.98 1001.30 1001.68 1002.27 1002.91 1003.49 1004.01 1004.54 1004.90 1005.43 1006.23 1006.80 1007.19 1007.54 1007.89 1008.18 1008.43 1008.56 1008.78 1009.09
1002.25 1001.75 1001.92 1001.94 1001.84 1001.72 1001.41 1001.00 1000.66 1000.44 1000.17 999.67 999.30 999.17 999.25 999.39 999.23 999.89 1000.96 1001.62 1001.76 1002.11 1002.14 1002.11 1002.06 1001.79 1001.55 1001.30 1000.99 1000.68 1000.43 1000.32 1000.39 1000.48 1000.84 1001.24 1001.64 1002.20 1002.72 1003.31 1003.90 1004.39 1004.87 1005.47 1006.06 1006.48 1006.82 1007.14 1007.50 1007.91 1008.13 1008.29 1008.46 1008.66
1001.63 1001.35 1001.86 1002.10 1002.17 1002.04 1001.93 1001.56 1001.20 1000.73 1000.26 1000.29 1000.21 999.98 999.68 999.68 1000.47 1001.50 1002.04 1002.42 1002.44 1002.46 1002.47 1002.48 1002.44 1002.47 1002.35 1002.11 1002.01 1001.74 1001.52 1001.25 1001.18 1001.35 1001.67 1002.12 1002.57 1002.79 1003.01 1003.49 1003.74 1004.13 1004.63 1005.36 1005.98 1006.38 1006.65 1006.95 1007.29 1007.60 1007.84 1008.02 1008.10 1008.34
1001.63 1001.80 1002.22 1002.69 1002.96 1002.59 1002.36 1002.02 1001.60 1000.97 1001.36 1001.28 1001.10 1000.73 1000.55 1001.27 1001.80 1002.07 1002.28 1002.52 1002.84 1002.81 1002.61 1002.49 1002.52 1002.60 1002.50 1002.43 1002.31 1002.10 1002.03 1001.90 1001.75 1001.76 1001.93 1002.34 1003.00 1003.43 1003.55 1003.74 1004.06 1004.41 1004.92 1005.49 1006.05 1006.35 1006.61 1006.93 1007.28 1007.51 1007.65 1007.93 1008.12 1008.27
1001.78 1002.11 1002.38 1003.03 1003.11 1002.80 1002.39 1002.02 1002.02 1002.30 1002.31 1002.25 1002.31 1002.11 1001.88 1001.73 1001.84 1001.91 1002.07 1002.19 1002.33 1002.43 1002.55 1002.64 1002.68 1002.66 1002.46 1002.44 1002.22 1002.07 1002.05 1001.99 1001.92 1001.87 1001.76 1001.73 1002.08 1002.68 1003.47 1003.93 1004.26 1004.61 1005.03 1005.47 1005.89 1006.36 1006.75 1006.98 1007.26 1007.51 1007.68 1007.85 1007.97 1008.11
1002.49 1002.63 1002.61 1002.83 1002.93 1002.83 1002.76 1002.96 1003.08 1003.01 1002.92 1002.84 1002.88 1002.75 1002.38 1002.21 1001.96 1001.83 1001.77 1001.80 1001.93 1002.31 1002.48 1002.44 1002.49 1002.46 1002.35 1002.14 1002.07 1002.02 1001.82 1001.82 1001.89 1001.99 1001.97 1001.77 1001.90 1002.39 1002.81 1003.51 1004.10 1004.55 1004.92 1005.28 1005.60 1005.96 1006.35 1006.70 1006.87 1007.02 1007.20 1007.43 1007.50 1007.68
1002.90 1002.83 1003.04 1003.12 1003.21 1003.24 1003.49 1003.37 1003.17 1002.86 1002.52 1002.34 1002.13 1002.03 1001.99 1001.94 1001.67 1001.43 1001.24 1001.56 1001.78 1002.12 1002.30 1002.52 1002.52 1002.41 1002.44 1002.43 1002.03 1001.77 1001.73 1001.65 1001.63 1001.77 1001.94 1001.86 1001.98 1002.27 1002.72 1003.26 1003.91 1004.47 1004.79 1005.13 1005.47 1005.78 1006.04 1006.15 1006.36 1006.65 1006.87 1007.21 1007.55 1007.81
1003.40 1003.63 1003.51 1003.66 1003.73 1003.51 1003.56 1003.78 1003.40 1002.86 1002.53 1002.31 1002.03 1001.91 1001.86 1002.01 1001.75 1001.66 1002.51 1002.66 1002.64 1002.67 1002.79 1002.82 1002.80 1002.81 1002.82 1002.87 1002.67 1002.00 1001.65 1001.72 1001.87 1002.03 1002.06 1001.93 1002.04 1002.38 1002.79 1003.23 1003.68 1004.09 1004.47 1004.74 1005.00 1005.36 1005.58 1005.95 1006.17 1006.47 1006.82 1007.18 1007.60 1007.98
Thickness
5340 5345 5349 5356 5362 5367 5375 5381 5387 5396 5396 5394 5390 5386 5384 5383 5379 5377 5378 5375 5372 5383 5400 5407 5424 5432 5441 5469 5484 5496 5511 5511 5519 5528 5539 5537 5539 5540 5547 5560 5563 5562 5548 5551 5549 5550 5561 5619 5611 5603 5610 5609 5613 5615
5336 5341 5344 5349 5356 5361 5367 5375 5380 5383 5387 5384 5382 5381 5378 5375 5372 5367 5369 5372 5370 5365 5369 5380 5402 5416 5429 5439 5447 5487 5511 5506 5516 5521 5524 5528 5535 5549 5553 5548 5571 5558 5577 5567 5566 5568 5598 5603 5602 5603 5600 5597 5598 5600
5331 5335 5340 5343 5348 5354 5359 5367 5372 5375 5382 5379 5377 5374 5370 5367 5365 5365 5362 5361 5358 5359 5367 5377 5401 5415 5414 5427 5437 5465 5491 5502 5502 5514 5527 5529 5538 5549 5546 5559 5566 5568 5575 5557 5559 5579 5587 5589 5585 5587 5588 5587 5586 5585
5325 5330 5335 5339 5343 5349 5354 5358 5366 5371 5382 5377 5373 5368 5364 5363 5362 5359 5354 5360 5363 5361 5373 5379 5389 5401 5408 5425 5446 5461 5500 5508 5505 5504 5505 5512 5527 5532 5547 5556 5549 5553 5563 5556 5552 5565 5577 5575 5575 5574 5574 5574 5571 5565
5322 5325 5330 5336 5339 5345 5351 5354 5360 5364 5372 5373 5369 5367 5363 5360 5357 5350 5353 5356 5364 5373 5384 5389 5392 5399 5422 5441 5456 5481 5495 5499 5494 5481 5480 5492 5506 5524 5521 5531 5540 5549 5544 5544 5546 5562 5560 5558 5559 5558 5550 5548 5547 5544
5318 5322 5325 5330 5337 5341 5348 5352 5353 5356 5356 5357 5361 5365 5362 5360 5355 5354 5344 5353 5362 5373 5375 5391 5392 5395 5406 5417 5451 5466 5470 5483 5481 5475 5477 5487 5497 5502 5500 5499 5531 5541 5550 5551 5547 5553 5550 5547 5546 5541 5533 5533 5532 5527
5315 5319 5322 5326 5332 5338 5342 5349 5351 5351 5350 5351 5352 5354 5355 5358 5356 5356 5364 5366 5363 5371 5373 5384 5390 5387 5400 5409 5427 5441 5451 5451 5454 5459 5468 5488 5491 5498 5501 5510 5528 5531 5534 5534 5534 5535 5528 5529 5526 5525 5521 5515 5511 5506
5313 5316 5319 5323 5327 5333 5339 5343 5350 5350 5349 5348 5347 5347 5349 5352 5351 5351 5356 5360 5364 5369 5376 5388 5391 5396 5399 5414 5424 5428 5424 5433 5437 5447 5464 5478 5483 5482 5488 5512 5513 5514 5515 5516 5515 5515 5512 5512 5508 5500 5499 5500 5495 5488
5313 5316 5318 5321 5325 5330 5335 5340 5345 5349 5349 5349 5347 5348 5353 5352 5349 5347 5351 5358 5364 5372 5383 5394 5406 5402 5399 5409 5414 5418 5430 5432 5440 5441 5451 5467 5458 5466 5495 5505 5502 5501 5499 5495 5494 5494 5498 5495 5488 5487 5485 5484 5481 5476
5312 5316 5318 5321 5325 5329 5334 5340 5347 5352 5351 5349 5350 5353 5360 5355 5349 5350 5351 5363 5368 5371 5384 5393 5402 5401 5406 5412 5417 5423 5434 5432 5428 5435 5444 5451 5460 5480 5491 5492 5491 5486 5482 5481 5475 5475 5476 5472 5473 5476 5475 5471 5469 5465
5311 5314 5317 5321 5324 5328 5334 5339 5346 5356 5360 5358 5367 5365 5367 5357 5357 5368 5379 5384 5389 5379 5386 5383 5398 5397 5396 5407 5416 5430 5420 5433 5431 5428 5437 5443 5449 5464 5477 5474 5467 5462 5460 5460 5461 5460 5460 5461 5462 5459 5457 5456 5456 5452
5310 5313 5316 5319 5323 5327 5331 5336 5341 5352 5351 5351 5353 5362 5374 5379 5382 5380 5385 5395 5401 5387 5382 5384 5383 5386 5390 5400 5404 5410 5417 5425 5419 5430 5433 5439 5457 5458 5452 5442 5437 5433 5434 5435 5435 5432 5428 5432 5434 5433 5437 5443 5439 5427
5311 5311 5314 5318 5321 5326 5331 5335 5340 5344 5352 5359 5362 5366 5367 5368 5368 5379 5372 5390 5386 5390 5387 5386 5381 5380 5386 5400 5396 5408 5404 5401 5419 5415 5429 5452 5453 5442 5433 5424 5418 5417 5418 5415 5415 5413 5413 5413 5412 5410 5417 5405 5407 5398
5310 5311 5312 5315 5318 5323 5329 5335 5341 5348 5358 5361 5362 5347 5356 5354 5349 5347 5353 5363 5372 5383 5387 5386 5386 5387 5390 5381 5387 5387 5391 5403 5405 5412 5432 5434 5428 5419 5415 5410 5405 5404 5402 5401 5399 5398 5393 5390 5386 5382 5380 5381 5382 5380
5310 5309 5308 5308 5311 5319 5326 5333 5340 5349 5357 5354 5354 5346 5342 5329 5330 5335 5343 5356 5363 5373 5374 5377 5381 5386 5381 5371 5387 5379 5375 5388 5405 5423 5424 5425 5411 5404 5397 5396 5389 5377 5376 5377 5375 5374 5373 5372 5371 5369 5367 5367 5370 5370
5308 5309 5303 5294 5296 5313 5325 5335 5346 5349 5348 5343 5341 5342 5343 5342 5337 5338 5342 5354 5360 5360 5363 5370 5373 5369 5372 5378 5379 5379 5388 5397 5411 5406 5406 5400 5388 5385 5379 5371 5367 5363 5362 5361 5361 5360 5358 5358 5359 5358 5358 5359 5361 5361
5309 5308 5301 5300 5305 5317 5329 5336 5345 5346 5346 5346 5323 5322 5332 5337 5336 5337 5348 5355 5360 5359 5356 5367 5364 5369 5380 5378 5385 5395 5395 5389 5380 5381 5381 5376 5372 5365 5357 5353 5351 5350 5351 5351 5351 5350 5349 5348 5348 5349 5350 5349 5350 5350
5314 5308 5305 5305 5310 5325 5335 5336 5340 5346 5340 5339 5335 5324 5335 5333 5327 5336 5344 5349 5353 5355 5359 5360 5366 5365 5364 5370 5384 5372 5361 5360 5364 5365 5360 5357 5352 5348 5346 5343 5341 5344 5345 5344 5345 5341 5341 5343 5347 5348 5344 5342 5341 5341
5307 5305 5303 5304 5307 5312 5326 5330 5333 5336 5334 5336 5334 5337 5333 5327 5337 5339 5341 5342 5348 5349 5347 5355 5359 5366 5371 5373 5363 5357 5353 5353 5354 5347 5345 5346 5343 5339 5336 5335 5336 5338 5338 5338 5339 5340 5341 5344 5347 5345 5343 5342 5340 5338
5311 5307 5306 5307 5306 5320 5320 5324 5326 5332 5334 5332 5332 5333 5336 5331 5330 5331 5331 5335 5341 5344 5345 5351 5360 5363 5361 5361 5361 5359 5355 5347 5346 5340 5333 5332 5332 5332 5331 5331 5332 5333 5334 5334 5336 5336 5336 5338 5340 5338 5337 5339 5336 5331
5315 5309 5308 5309 5315 5314 5319 5321 5325 5325 5326 5325 5330 5328 5330 5326 5321 5321 5323 5334 5329 5334 5348 5358 5359 5354 5355 5355 5356 5354 5350 5345 5341 5338 5335 5328 5328 5328 5327 5328 5329 5330 5332 5331 5330 5333 5334 5334 5335 5333 5331 5328 5325 5326
5309 5304 5305 5304 5310 5306 5309 5319 5316 5308 5313 5324 5321 5323 5327 5320 5320 5323 5328 5325 5330 5341 5346 5347 5348 5349 5346 5347 5349 5348 5344 5344 5339 5337 5333 5331 5328 5325 5326 5327 5327 5327 5328 5329 5333 5331 5332 5333 5332 5328 5322 5319 5319 5321
5304 5301 5303 5300 5298 5301 5304 5312 5308 5313 5309 5313 5321 5321 5326 5325 5329 5330 5326 5332 5335 5340 5341 5343 5346 5347 5345 5345 5344 5340 5339 5339 5337 5336 5333 5332 5328 5326 5327 5327 5328 5327 5328 5329 5331 5329 5329 5327 5322 5319 5317 5315 5315 5315
5296 5298 5297 5301 5299 5301 5302 5302 5309 5309 5312 5307 5313 5318 5328 5325 5317 5318 5326 5338 5339 5336 5333 5333 5335 5338 5339 5338 5337 5334 5331 5333 5334 5330 5331 5331 5330 5329 5328 5327 5327 5327 5326 5326 5324 5323 5321 5318 5316 5313 5312 5312 5309 5310
5289 5292 5290 5299 5299 5296 5296 5303 5306 5310 5304 5307 5312 5316 5324 5318 5312 5315 5324 5337 5326 5319 5316 5316 5322 5331 5333 5334 5335 5333 5330 5328 5328 5329 5328 5327 5326 5325 5325 5323 5322 5322 5320 5315 5312 5311 5309 5309 5309 5308 5307 5305 5305 5304
5285 5294 5290 5301 5299 5298 5304 5300 5298 5300 5306 5303 5303 5313 5312 5310 5306 5315 5325 5304 5302 5295 5294 5295 5299 5310 5321 5327 5327 5325 5324 5325 5325 5323 5325 5325 5325 5321 5317 5315 5313 5311 5313 5310 5305 5302 5302 5301 5300 5300 5299 5299 5298 5296
5287 5292 5291 5290 5290 5290 5289 5293 5296 5294 5290 5296 5303 5302 5299 5295 5304 5298 5279 5273 5275 5273 5275 5278 5280 5286 5291 5296 5303 5308 5313 5316 5318 5320 5319 5318 5318 5315 5312 5308 5305 5305 5304 5301 5297 5297 5297 5296 5295 5293 5292 5291 5290 5289
5285 5291 5275 5278 5277 5281 5275 5278 5279 5282 5290 5288 5288 5286 5291 5295 5282 5265 5259 5258 5260 5263 5264 5267 5270 5271 5275 5280 5282 5286 5291 5295 5300 5301 5300 5298 5297 5298 5300 5299 5298 5296 5296 5292 5289 5288 5288 5287 5285 5284 5282 5282 5282 5280
5271 5272 5269 5250 5252 5262 5263 5266 5269 5281 5270 5270 5269 5274 5278 5263 5257 5254 5253 5250 5246 5247 5251 5254 5256 5258 5261 5264 5268 5272 5276 5280 5285 5289 5291 5291 5285 5283 5285 5286 5287 5286 5283 5281 5278 5278 5278 5277 5275 5274 5274 5272 5271 5269
5259 5259 5257 5243 5240 5246 5257 5264 5262 5256 5254 5254 5252 5252 5253 5254 5253 5252 5249 5246 5244 5241 5240 5238 5240 5242 5247 5250 5256 5260 5262 5266 5270 5275 5281 5286 5284 5278 5273 5273 5273 5273 5271 5271 5269 5267 5265 5264 5264 5262 5262 5261 5260 5259
5240 5242 5246 5244 5242 5247 5249 5245 5241 5241 5240 5238 5237 5235 5237 5239 5242 5243 5243 5241 5239 5234 5231 5229 5226 5227 5230 5236 5240 5244 5251 5253 5255 5257 5261 5268 5269 5268 5266 5263 5261 5260 5260 5260 5260 5259 5257 5256 5256 5256 5255 5254 5254 5252
5226 5231 5229 5226 5232 5236 5232 5232 5233 5235 5239 5238 5240 5241 5238 5236 5235 5240 5237 5233 5231 5227 5224 5219 5215 5214 5212 5213 5221 5228 5232 5238 5242 5244 5246 5251 5253 5254 5253 5251 5249 5247 5247 5248 5247 5247 5247 5249 5249 5248 5248 5245 5242 5240
5210 5211 5214 5215 5217 5223 5224 5220 5224 5230 5232 5231 5233 5233 5232 5228 5227 5230 5215 5212 5212 5211 5209 5206 5203 5199 5195 5192 5195 5206 5214 5218 5222 5224 5228 5234 5237 5237 5237 5237 5236 5237 5236 5237 5238 5236 5237 5236 5237 5237 5235 5234 5232 5230